* Astronomy

Members Login
Username 
 
Password 
    Remember Me  
Post Info TOPIC: PSLV rocket body re-entry


L

Posts: 131433
Date:
RE: PSLV rocket body re-entry
Permalink  
 


Update:
The PSLV rocket body re-entered the Earths atmosphere on the 9th May, 2012 @ 12:47 GMT ± 1 minute.

Inclination:  17.68°
Revolution Number:   14371
Predicted Location:    16°N, 160°E



__________________


L

Posts: 131433
Date:
Permalink  
 

Update:
The PSLV rocket body is predicted to re-enter the Earths atmosphere on the 10th May, 2012 @ 04:30 GMT ± 15 hours.

PSLV RB
1 27526U 02043B   12128.94586806  .11827313 -20044-4  42442-3 0   194
2 27526 017.6787 165.5988 0452010 302.1104 081.1298 15.45879995143464

Period:        93.95 minutes
Inclination:  17.68°
Apogee:      814 km
Perigee:      121 km 
Revolution Number:   14373
Predicted Location:    Indian Ocean



__________________


L

Posts: 131433
Date:
Permalink  
 

Update:
The PSLV rocket body is predicted to re-enter the Earths atmosphere on the 9th May, 2012 @ 11:05 GMT ± 48 hours.

PSLV RB
1 27526U 02043B   12126.91172454 +.07914697 -18758-4 +31070-3 0 00112
2 27526 017.6749 180.5888 0627426 273.9393 082.0941 15.04068274143154

Period:        95.81 minutes
Inclination:  17.67°
Apogee:      995 km
Perigee:      120 km 
Revolution Number:   14371
Predicted Location:    11.8°N, 160.7°E



__________________


L

Posts: 131433
Date:
Permalink  
 

A PSLV rocket body that was launched on the 12th September, 2001, from Satish Dhawan Space Centre for the Kalpana-1 (MetSat-1) satellite mission is predicted to re-enter the Earths atmosphere on the 9th May, 2012 @ 09:30 GMT ± 48 hours.

PSLV RB
1 27526U 02043B   12126.84288194  .07921612 -18718-4  32228-3 0   109
2 27526 017.6797 181.0885 0631059 272.9522 069.5231 15.02989593143134

Period:        96.19 minutes
Inclination:  17.68°
Apogee:      1030 km
Perigee:      122 km 
Revolution Number:   14370
Predicted Location:   12.1°N, 186.4°E



__________________
Page 1 of 1  sorted by
 
Quick Reply

Please log in to post quick replies.



Create your own FREE Forum
Report Abuse
Powered by ActiveBoard